Location: Giffers
(46.7623°N, 7.2085°E)
Time: 05:58:14
(UTC+00:00)

Daily predictions for brighter satellites

Satellite Brightness Start Highest point End
(mag) Time Altitude Azimuth Time Altitude Azimuth Time Altitude Azimuth
CZ-2D R/B 4.3 00:01:45 10° NE 00:04:27 19° ENE 00:04:27 19° ENE
Cosmos 2333 Rocket 3.4 00:02:53 10° NNW 00:07:04 38° NNE 00:07:04 38° NNE
Cosmos 2237 Rocket 4.3 00:09:48 10° N 00:14:06 21° NE 00:17:06 15° E
SL-16 R/B 3.1 00:31:32 50° ENE 00:31:32 50° ENE 00:37:27 10° N
Cosmos 2219 Rocket 3.3 00:45:35 10° NNW 00:49:01 39° NNW 00:49:01 39° NNW
Cosmos 2227 Rocket 4.1 01:02:32 20° ESE 01:02:38 20° E 01:06:35 10° NE
ADEOS II 3.7 01:03:42 10° NE 01:08:02 25° E 01:08:11 25° E
COSMOS 2428 3.8 01:06:44 10° NNW 01:10:03 36° NW 01:10:03 36° NW
SJ 16-02 3.1 01:14:58 30° NNE 01:14:58 30° NNE 01:17:16 10° NNE
Cosmos 1464 Rocket 4.2 01:08:00 10° N 01:13:07 63° NNW 01:13:07 63° NNW
Cosmos 1980 4.2 01:11:57 10° NNW 01:17:33 55° ENE 01:18:03 53° E
Resurs 1-4 Rocket 2.6 01:14:42 10° NNE 01:18:58 58° NNE 01:18:58 58° NNE
NOSS 0 Rocket 3.9 01:19:08 10° NNW 01:24:55 78° N 01:24:55 78° N
ARIANE 5 R/B 4.1 01:25:37 10° NE 01:30:03 27° E 01:31:01 26° ESE
SL-16 R/B 3.9 01:30:11 10° NNW 01:35:11 31° NE 01:40:09 10° ESE
H-2A R/B 3.8 01:34:44 26° E 01:35:26 28° ENE 01:38:58 10° N
Lacrosse 5 rocket 3.2 01:41:23 25° N 01:41:23 25° N 01:43:42 10° NE
Timation 2 Rocket 4.0 01:39:47 76° WSW 01:40:19 82° WNW 01:47:17 10° NNE
NPP 3.7 01:39:10 10° N 01:44:03 68° NNW 01:44:03 68° NNW
CZ-2D R/B 2.4 01:40:49 10° N 01:45:47 62° NW 01:45:47 62° NW
Cosmos 1634 Rocket 4.3 01:41:50 10° N 01:47:57 61° ENE 01:50:17 38° SE
ERS-2 4.2 01:53:19 23° N 01:53:19 23° N 01:54:48 10° N
Cosmos 2333 Rocket 4.0 01:47:25 10° NW 01:49:02 18° NW 01:49:02 18° NW
Cosmos 372 Rocket 4.2 01:54:53 60° ESE 01:55:03 61° ESE 02:00:12 10° NNE
Cosmos 1937 Rocket 3.7 01:56:46 58° NW 01:56:46 58° NW 02:01:28 10° NNE
CZ-4B R/B 4.0 01:52:15 10° N 01:55:59 45° NNW 01:55:59 45° NNW
USA 267 3.9 01:51:25 10° ENE 01:57:31 40° SE 01:58:52 36° SSE
SL-08 R/B 3.5 01:58:01 69° ESE 01:58:22 72° ENE 02:03:20 10° N
Cosmos 2237 Rocket 2.0 01:53:11 10° NNW 01:58:51 82° WSW 01:58:51 82° WSW
Tsikada Rocket 3.9 02:00:24 67° SW 02:01:17 79° W 02:07:44 10° N
ATLAS 5 CENTAUR R/B 4.1 01:57:53 10° NNW 02:02:41 30° NE 02:08:09 10° E
CBERS-1 3.9 01:57:42 10° NNE 02:02:45 80° NW 02:02:45 80° NW
Cosmos 2034 Rocket 4.3 01:58:02 10° NNW 02:03:51 49° W 02:03:51 49° W
STARLINK-1051 4.4 02:05:41 48° NNE 02:05:41 48° NNE 02:09:10 10° ENE
Okean 1 4.2 02:06:03 47° ENE 02:06:03 47° ENE 02:09:30 10° NNE
STARLINK-1010 4.5 02:07:29 47° N 02:07:29 47° N 02:11:17 10° ENE
Meteor 1-27 Rocket 4.0 02:07:19 52° WNW 02:07:19 52° WNW 02:12:56 10° N
Cosmos 1898 Rocket 4.4 02:11:46 35° NW 02:11:46 35° NW 02:16:22 10° N
STARLINK-1057 4.3 02:13:06 50° E 02:13:06 50° E 02:16:23 10° ENE
IRS-P3 4.0 02:08:15 10° NNE 02:13:39 89° WNW 02:14:21 69° SSW
STARLINK-1028 4.3 02:15:13 48° N 02:15:13 48° N 02:19:06 10° ENE
SL-16 R/B 3.6 02:16:37 29° WNW 02:16:37 29° WNW 02:20:46 10° NNW
Landsat 5 4.3 02:15:51 36° ESE 02:16:49 44° ENE 02:20:30 10° N
STARLINK-1034 4.0 02:17:53 57° E 02:17:53 57° E 02:21:23 10° ENE
Sich 1 Rocket 4.5 02:14:07 10° N 02:18:22 47° ENE 02:20:31 26° SE
Cosmos 1743 3.5 02:15:24 10° N 02:18:11 45° N 02:18:11 45° N
Cosmos 2297 Rocket 2.1 02:18:26 61° SSW 02:19:28 85° ESE 02:25:11 10° NNE
Cosmos 1975 3.5 02:15:52 10° N 02:19:49 51° ENE 02:20:39 43° ESE
STARLINK-1021 4.3 02:20:02 46° NNW 02:20:05 46° NNW 02:24:06 10° ENE
USA 238 DEB 3.6 02:18:58 49° SSW 02:20:54 79° SE 02:27:50 10° NE
USA 238 3.6 02:19:03 49° SSW 02:21:01 78° SE 02:27:57 10° NE
STARLINK-1068 3.8 02:22:39 66° E 02:22:39 66° E 02:26:21 10° ENE
BREEZE-M DEB (TANK) 3.2 02:22:14 64° NW 02:22:35 69° N 02:28:13 10° ENE
STARLINK-1019 4.3 02:24:48 44° NNW 02:25:04 45° NNW 02:29:04 10° ENE
STARLINK-81 4.3 02:26:09 43° NNW 02:26:22 43° NNW 02:30:14 10° ENE
STARLINK-1023 4.4 02:27:18 41° NW 02:27:48 43° NNW 02:31:50 10° ENE
STARLINK-54 4.4 02:27:54 40° NNW 02:28:16 41° NNW 02:32:06 10° ENE
Cosmos 2219 3.3 02:27:50 54° WSW 02:28:56 65° WNW 02:34:42 10° NNE
Cosmos 1048 Rocket 3.9 02:23:35 10° NNW 02:28:58 89° WSW 02:32:52 19° SSE
STARLINK-77 4.4 02:29:19 41° NNW 02:29:41 42° NNW 02:33:33 10° ENE
STARLINK-1012 4.4 02:29:35 41° NW 02:30:05 43° NNW 02:34:04 10° ENE
CZ-2C R/B 4.0 02:27:12 10° NNE 02:31:01 39° E 02:32:21 30° SE
STARLINK-25 4.4 02:30:54 40° NNW 02:31:21 41° NNW 02:35:12 10° ENE
STARLINK-1060 3.5 02:32:12 84° ESE 02:32:12 84° ESE 02:36:18 10° ENE
USA 234 3.8 02:26:36 10° ESE 02:33:00 59° NNE 02:39:25 10° NW
STARLINK-71 4.5 02:32:41 37° NW 02:33:16 40° NNW 02:37:05 10° ENE
STARLINK-79 4.4 02:34:05 38° NW 02:34:41 40° NNW 02:38:31 10° ENE
Cosmos 2279 Rocket 4.0 02:29:11 10° N 02:35:28 85° E 02:40:52 14° S
Meteor 1-28 Rocket 3.1 02:36:21 77° NNW 02:36:21 77° NNW 02:39:52 10° NNW
STARLINK-78 4.5 02:35:41 37° NW 02:36:21 40° NNW 02:40:11 10° ENE
Meteor 1-18 Rocket 4.2 02:34:45 38° S 02:37:06 87° E 02:42:51 10° NNE
STARLINK-1030 3.4 02:37:00 84° WSW 02:37:08 89° NNW 02:41:18 10° ENE
Cosmos 1125 Rocket 3.6 02:37:45 39° S 02:39:42 72° ESE 02:45:01 10° NNE
GENESIS II 4.1 02:39:54 80° WSW 02:40:06 85° NW 02:44:14 10° NE
STARLINK-1020 3.4 02:41:48 74° W 02:42:08 84° NNW 02:46:18 10° ENE
IRS-1D 4.1 02:38:04 10° N 02:42:43 38° WNW 02:43:17 37° W
NOSS 3-2 (A) 3.3 02:42:50 43° SW 02:44:55 80° NW 02:51:33 10° NE
Cosmos 2227 Rocket 2.2 02:44:21 44° SW 02:46:05 70° WNW 02:51:46 10° NNE
STARLINK-1052 3.5 02:46:34 65° W 02:47:06 79° NNW 02:51:16 10° ENE
ADEOS II 2.4 02:42:55 10° N 02:47:58 48° WNW 02:49:08 41° WSW
CENTAUR R/B 2.7 02:46:11 31° SSW 02:49:08 64° ESE 02:56:01 10° NE
CZ-2D R/B 3.3 02:46:28 10° NNE 02:50:43 83° WNW 02:51:42 52° SSW
Cosmos 2150 Rocket 4.2 02:50:34 42° WSW 02:52:09 58° WNW 02:57:34 10° NNE
Cosmos 1782 Rocket 3.6 02:47:57 10° NNW 02:52:12 53° W 02:52:27 52° WSW
SJ 16-02 3.7 02:51:57 11° NW 02:52:13 11° NW 02:53:40 10° NNW
Cosmos 2298 Rocket 4.3 02:51:31 41° WSW 02:52:56 52° WNW 02:58:09 10° NNE
NOSS 3-3 (A) 4.5 02:45:37 10° NW 02:53:05 66° WSW 03:01:19 10° SSE
NOSS 3-3 (C) 4.5 02:45:42 10° NW 02:53:11 67° WSW 03:01:26 10° SSE
CZ-4C R/B 4.1 02:54:40 28° NW 02:54:40 28° NW 02:56:23 10° NNW
Okean 1-7 3.3 02:55:06 45° W 02:55:35 48° WNW 02:59:52 10° N
STARLINK-1027 3.7 02:55:30 48° W 02:56:32 70° NNW 03:00:48 10° ENE
STARLINK-1033 3.7 02:56:08 50° W 02:57:04 71° NNW 03:01:13 10° ENE
SAR-Lupe-4 3.4 02:57:22 42° S 02:58:28 83° WSW 03:02:05 10° NNW
Resurs 1-4 Rocket 3.8 02:55:51 10° NNW 02:59:11 17° WNW 03:00:03 17° WNW
Cosmos 1703 Rocket 4.2 03:00:16 37° W 03:00:44 38° WNW 03:04:56 10° N
IDEFIX/ARIANE 42P 2.7 02:56:31 10° NNE 03:01:44 75° ESE 03:05:38 18° S
STARLINK-1038 4.4 03:02:29 32° S 03:03:46 41° SE 03:07:41 10° ENE
STARLINK-1031 3.9 03:02:55 39° W 03:04:17 62° NNW 03:08:31 10° ENE
BREEZE-M DEB (TANK) 2.5 03:05:30 38° S 03:06:05 43° SSE 03:08:18 10° E
STARLINK-1024 3.8 03:05:41 39° W 03:07:03 63° NNW 03:11:10 10° ENE
Cosmos 2180 Rocket 4.4 03:02:07 10° NNW 03:08:18 70° W 03:14:33 10° S
STARLINK-1046 4.3 03:07:16 31° S 03:08:43 45° SE 03:12:41 10° ENE
ARIANE 5 R/B 3.0 03:04:21 10° N 03:09:18 45° WNW 03:11:22 30° WSW
CZ-4B R/B 1.8 03:06:10 10° SSE 03:09:38 66° ENE 03:13:05 10° N
BREEZE-M DEB (TANK) 3.3 03:05:39 10° WNW 03:10:50 37° SW 03:14:27 10° SSE
CZ-2C R/B 4.0 03:06:53 10° NNE 03:10:58 31° E 03:15:03 10° SSE
Spot 4 Rocket 4.2 03:06:00 10° N 03:11:04 57° WNW 03:13:36 28° SW
H-2A R/B 2.9 03:11:49 29° W 03:11:49 29° W 03:15:02 10° NW
STARLINK-1035 3.9 03:10:27 34° W 03:12:01 60° NNW 03:16:08 10° ENE
STARLINK-1039 4.2 03:12:03 30° SSW 03:13:41 49° SE 03:17:42 10° ENE
Cosmos 967 Rocket 4.4 03:09:10 10° NW 03:15:38 72° WSW 03:21:59 10° SSE
SAR-Lupe-1 4.1 03:14:18 29° SSW 03:15:52 57° WSW 03:19:26 10° NNW
STARLINK-43 3.2 03:13:52 21° WNW 03:16:14 89° S 03:19:56 10° ESE
NOSS 3-2 (C) 3.4 03:13:21 27° SW 03:16:42 77° NW 03:23:22 10° NE
STARLINK-1032 4.0 03:15:15 31° W 03:17:02 57° NNW 03:21:07 10° ENE
Meteor 1-4 Rocket 3.3 03:13:54 13° S 03:17:09 54° E 03:20:51 10° NNE
Cosmos 389 Rocket 2.5 03:17:04 38° SW 03:18:12 62° WNW 03:21:43 10° N
STARLINK-1045 4.1 03:16:51 29° SSW 03:18:39 53° SE 03:22:42 10° ENE
SL-16 R/B 2.3 03:14:05 10° NW 03:19:34 51° WSW 03:25:00 10° S
Lacrosse 5 rocket 3.6 03:17:34 10° NW 03:20:21 18° N 03:23:13 10° NE
STARLINK-26 4.1 03:18:23 13° NW 03:21:18 45° NNE 03:24:39 10° E
STARLINK-1011 4.0 03:20:02 27° W 03:22:01 54° NNW 03:26:06 10° ENE
STARLINK 1040 4.4 03:20:14 15° NW 03:22:02 28° NNE 03:24:27 10° ENE
Meteor 1-13 Rocket 4.4 03:17:11 10° S 03:22:53 75° E 03:28:30 10° NNE
STARLINK-55 4.4 03:20:31 13° NW 03:23:07 35° NNE 03:26:07 10° E
Cosmos 2082 3.9 03:20:11 25° SW 03:23:31 60° WNW 03:29:13 10° NNE
STARLINK-1050 3.9 03:21:38 28° SSW 03:23:37 58° SE 03:27:43 10° ENE
CZ-2D R/B 4.2 03:23:17 10° NNW 03:25:16 12° NW 03:27:06 10° WNW
Cosmos 1674 Rocket 4.2 03:21:01 10° S 03:25:19 58° E 03:29:38 10° NNE
ADEOS 4.4 03:20:14 10° NNE 03:25:20 51° E 03:30:24 10° S
deb Chang Zheng 4 3.5 03:21:17 10° NNE 03:25:36 77° WNW 03:28:51 18° SSW
STARLINK-1036 4.1 03:24:50 24° W 03:27:02 51° NNW 03:31:06 10° ENE
STARLINK-28 4.3 03:24:21 12° NW 03:27:07 38° NNE 03:30:09 10° E
STARLINK-1055 3.8 03:26:25 26° SW 03:28:36 63° SE 03:32:42 10° ENE
STARLINK-1044 4.2 03:29:37 22° W 03:32:02 49° NNW 03:36:05 10° ENE
Okean 3 3.6 03:30:21 22° SW 03:32:47 50° WNW 03:36:52 10° N
STARLINK-33 4.3 03:30:17 10° NW 03:33:19 37° NNE 03:36:21 10° E
STARLINK-1022 3.8 03:31:13 24° SW 03:33:34 68° SE 03:37:42 10° ENE
STARLINK-1047 4.3 03:34:23 20° W 03:37:01 47° NNW 03:41:03 10° ENE
STARLINK-1037 4.3 03:35:01 19° W 03:37:41 47° NNW 03:41:42 10° ENE
Meteor 1-12 Rocket 4.3 03:31:54 10° NNW 03:37:47 62° W 03:43:32 10° S
STARLINK-66 4.2 03:35:23 10° NW 03:38:27 40° NNE 03:41:31 10° E
STARLINK-1042 3.7 03:35:59 22° SW 03:38:32 73° SE 03:42:40 10° ENE
COSMOS 2441 4.3 03:35:12 10° NNE 03:40:01 83° WNW 03:44:49 10° SSW
Cosmos 1544 4.3 03:37:40 10° NW 03:40:34 22° W 03:41:04 22° WSW
USA 267 3.3 03:34:17 10° NE 03:40:49 73° NNW 03:46:14 16° WSW
Cosmos 2237 Rocket 4.0 03:39:36 10° WNW 03:40:36 12° W 03:40:36 12° W
Cosmos 1603 3.9 03:36:54 10° NNW 03:42:33 75° ENE 03:48:11 10° SSE
SeaSat 1 2.9 03:37:46 10° SE 03:42:40 67° ENE 03:47:34 10° NNW
STARLINK-1056 3.6 03:40:46 21° SW 03:43:30 78° SSE 03:47:39 10° ENE
Meteor 1-15 Rocket 4.5 03:38:45 10° N 03:44:21 75° ENE 03:50:00 10° SSE
Cosmos 1300 Rocket 3.9 03:40:55 10° NNW 03:45:00 42° W 03:49:04 10° SSW
ATLAS 3B R/B 2.7 03:40:37 12° SW 03:46:48 85° SE 03:53:30 10° NE
STARLINK-1059 4.4 03:43:57 16° W 03:47:02 44° NNW 03:51:01 10° ENE
ATLAS 5 CENTAUR R/B 2.3 03:42:07 10° NW 03:47:52 77° SW 03:54:32 10° SSE
Cosmos 2221 Rocket 4.2 03:45:25 17° SW 03:48:22 36° WNW 03:52:28 10° N
STARLINK-1054 3.6 03:45:32 19° SW 03:48:27 83° SSE 03:52:37 10° ENE
Cosmos 1818 3.8 03:43:26 10° NW 03:48:38 46° WSW 03:53:46 10° S
STARLINK-75 4.1 03:45:55 10° NW 03:49:00 42° NNE 03:52:05 10° E
STARLINK-1057 4.5 03:48:44 14° W 03:52:02 42° NNW 03:56:00 10° ENE
STARLINK-1062 3.6 03:50:19 17° WSW 03:53:26 88° SSE 03:57:36 10° ENE
Cosmos 2263 Rocket 2.7 03:49:17 10° S 03:54:50 61° ESE 04:00:27 10° NNE
Okean 2 Rocket 4.0 03:51:03 10° NNW 03:54:57 29° W 03:58:51 10° SSW
Cosmos 1689 Rocket 2.1 03:52:39 10° S 03:55:37 58° W 03:58:36 10° NNW
Cosmos 2151 Rocket 4.0 03:52:25 10° NNW 03:56:31 39° W 04:00:36 10° SSW
PSLV R/B 3.7 03:53:05 10° N 03:57:23 57° WNW 04:01:40 10° SSW
Cosmos 1356 4.3 03:54:34 10° NNW 03:57:34 28° W 04:00:32 10° SSW
STARLINK-1053 3.6 03:55:07 16° WSW 03:58:26 86° NNW 04:02:36 10° ENE
BREEZE-M DEB (TANK) 2.1 03:54:53 10° WNW 03:58:31 78° NNE 04:00:47 10° ESE
Cosmos 1437 Rocket 3.9 03:55:23 10° S 03:59:19 48° E 04:03:15 10° NNE
STARLINK-34 4.5 03:58:54 10° NW 04:01:52 34° NNE 04:04:50 10° E
STARLINK-62 4.5 03:59:51 10° NW 04:02:49 34° NNE 04:05:47 10° E
Cosmos 1867 3.7 03:57:48 10° SSW 04:03:14 80° SE 04:08:44 10° NE
STARLINK-1061 3.6 03:59:52 14° WSW 04:03:23 81° NNW 04:07:33 10° ENE
Cosmos 1378 Rocket 3.5 03:59:31 10° SSW 04:03:51 75° W 04:08:15 10° N
Cosmos 2297 Rocket 3.8 04:00:14 10° W 04:04:16 21° NW 04:08:29 10° N
CZ-2C R/B 4.4 04:02:11 10° NNW 04:05:11 20° WNW 04:07:46 12° WSW
STARLINK-22 4.0 04:02:07 10° NW 04:05:14 44° NNE 04:08:22 10° E
Cosmos 1092 Rocket 4.0 04:01:32 10° SSW 04:07:50 69° W 04:14:09 10° N
STARLINK-1067 3.7 04:04:40 13° WSW 04:08:23 77° NNW 04:12:33 10° ENE
Aureole 3 Rocket 3.6 04:05:54 10° N 04:10:29 57° ENE 04:13:56 10° SSE
Meteor 1-31 Rocket 3.3 04:08:46 10° NNE 04:12:42 66° E 04:16:35 10° S
ATLAS CENTAUR R/B 2.0 04:11:35 12° W 04:13:09 27° NNW 04:15:38 10° NE
STARLINK-1058 3.7 04:09:26 11° WSW 04:13:21 72° NNW 04:17:30 10° ENE
USA 234 3.4 04:09:40 10° SSE 04:16:04 56° SW 04:22:28 10° WNW
Geosat 4.1 04:12:12 10° NNE 04:17:12 65° WNW 04:22:10 10° SW
STARLINK-1043 3.8 04:14:14 10° WSW 04:18:22 68° NNW 04:22:30 10° ENE
Cosmos 2026 Rocket 3.9 04:12:41 10° SSW 04:18:47 76° W 04:24:53 10° N
STARLINK-48 3.7 04:14:53 10° WNW 04:18:48 72° NNE 04:22:41 10° ESE
STARLINK-1065 3.8 04:14:51 10° WSW 04:18:59 68° NNW 04:23:06 10° ENE
Cosmos 2251 Rocket 3.5 04:15:17 10° NNW 04:20:40 81° WSW 04:25:58 10° SSE
Timation 1 Rocket 4.4 04:17:28 10° SSW 04:23:29 78° WNW 04:29:33 10° NNE
STARLINK-41 3.4 04:22:44 10° WNW 04:25:53 63° NNE 04:29:02 10° ESE
STARLINK-1063 3.9 04:24:14 10° WSW 04:28:20 61° NNW 04:32:27 10° ENE
Cosmos 1428 Rocket 4.5 04:22:32 10° SSW 04:28:39 71° W 04:34:51 10° N
ALOS 3.1 04:24:02 10° NNE 04:28:39 56° E 04:33:15 10° S
Cosmos 2227 Rocket 4.0 04:27:50 10° WNW 04:31:15 16° NW 04:34:41 10° N
Cosmos 2227 4.3 04:27:16 10° SW 04:32:48 60° WNW 04:38:24 10° NNE
